This demonstration page uses our WeatherBlox Daily Observations layout. Learn more.

Left ArrowRight Arrow

36.17497, -115.13722

Hourly Observations for April 8, 2016

Temp ( °F °C ) Dew Point ( °F °C ) Humidity (%) Winds ( mph kmh ) Pressure ( in mb ) Visibility ( mi km ) Precip ( " mm )
12:53 am 00:53 Clear 74 23.3 35 1.7 24 24 SSW 16 26 29.85 1011 10 16.0934 0 0
1:53 am 01:53 Clear 74 23.3 35 1.7 24 24 SSW 8 13 29.84 1011 10 16.0934 0 0
2:53 am 02:53 Partly Cloudy 73 22.8 35 1.7 25 25 WSW 7 11 29.84 1010 10 16.0934 0 0
3:53 am 03:53 Clear 71 21.7 34 1.1 26 26 SE 8 13 29.84 1011 10 16.0934 0 0
4:53 am 04:53 Mostly Clear 70 21.1 38 3.3 31 31 ESE 9 15 29.84 1011 10 16.0934 0 0
5:53 am 05:53 Clear 69 20.6 43 6.1 39 39 SSW 16 26 29.85 1011 10 16.0934 0 0
6:53 am 06:53 Cloudy 68 20 43 6.1 40 40 SSW 12 19 29.88 1012 10 16.0934 0 0
7:53 am 07:53 Sunny 68 20 44 6.7 42 42 S 12 19 29.9 1013 10 16.0934 0 0
8:53 am 08:53 Mostly Sunny 68 20 45 7.2 44 44 S 9 15 29.93 1013 10 16.0934 0 0
9:53 am 09:53 Mostly Cloudy 67 19.4 46 7.8 47 47 SSW 13 20 29.95 1014 10 16.0934 0 0
10:53 am 10:53 Cloudy 66 18.9 48 8.9 52 52 SW 14 22 29.96 1015 10 16.0934 0 0
11:53 am 11:53 Cloudy 66 18.9 47 8.3 50 50 SSW 7 11 29.96 1015 10 16.0934 0 0
12:53 pm 12:53 Cloudy with Light Rain 63 17.2 50 10 63 63 SSW 8 13 29.97 1015 10 16.0934 0 0.0254
1:53 pm 13:53 Cloudy with Light Rain 62 16.7 50 10 65 65 SE 7 11 29.98 1015 10 16.0934 0 0.0254
2:53 pm 14:53 Cloudy with Light Rain 61 16.1 53 11.7 75 75 E 3 6 29.95 1014 10 16.0934 0.01 0.254
3:53 pm 15:53 Cloudy 62 16.7 53 11.7 73 73 Calm 29.92 1013 10 16.0934 0.01 0.254
4:53 pm 16:53 Sunny 63 17.2 50 10 63 63 E 7 11 29.91 1013 10 16.0934 0 0
5:53 pm 17:53 Sunny 63 17.2 49 9.4 60 60 ESE 7 11 29.92 1013 10 16.0934 0 0
6:53 pm 18:53 Sunny 63 17.2 48 8.9 58 58 S 9 15 29.92 1013 10 16.0934 0 0
7:53 pm 19:53 Cloudy with Light Rain 63 17.2 49 9.4 60 60 SSE 17 28 29.93 1014 10 16.0934 0 0.0254
8:53 pm 20:53 Cloudy with Light Rain 59 15 52 11.1 78 78 SSE 8 13 29.96 1014 10 16.0934 0.03 0.762
9:53 pm 21:53 Cloudy 59 15 51 10.6 75 75 WNW 5 7 29.96 1014 10 16.0934 0 0.0254
10:53 pm 22:53 Cloudy 59 15 52 11.1 78 78 SE 3 6 29.96 1015 10 16.0934 0.01 0.254
11:53 pm 23:53 Cloudy with Light Rain 59 15 52 11.1 78 78 S 5 7 29.96 1014 10 16.0934 0 0.0254

Powered by AerisWeather